sat.trackr.live / text

‹ back to catalog

INTELSAT 22 (IS-22)

NORAD 38098 · 2012-011A

PAYLOAD ACTIVE UNKNOWN

§ Identity

Operator
Country
ITSO
Launch date
2012-03-25
Launch site
TYMSC
Launch vehicle
Mass (kg)
RCS (m²)
0.00

Purposes: comms

External: N2YO · Heavens-Above · Gunter

§ Orbital elements

Epoch: 2026-05-25T02:22:30.685728Z

Period
1,436.09 min
Inclination
0.0206°
Eccentricity
0.0001724
Mean motion
1.00272508 rev/d
Perigee alt
35,779.1 km
Apogee alt
35,793.7 km
Semi-major
42,164.5 km
B*
0.0000e+0
RAAN
69.4122°
Arg perigee
352.9080°
Mean anomaly
288.1162°
Rev number
695

§ Raw data

INTELSAT 22 (IS-22)1 38098U 12011A   26145.09896627 -.00000061  00000+0  00000+0 0  99942 38098   0.0206  69.4122 0001724 352.9080 288.1162  1.00272508  6956

JSON: /api/v1/satellites/38098 · /tle

For live sub-satellite position, see the globe view (requires WebGL).

§ Visibility from observer

Set your observer location to see the next 7 days of passes ≥ 10°. The values pass through the URL so the page stays shareable.

No JS? Fill the form by hand. The geolocation button needs JavaScript.